星链-2642 (STARLINK-2642 )

导读

STARLINK-2642是美国太空探索技术公司(SpaceX)星链(Starlink)星座中的一颗卫星,于2021年5月9日发射升空,属于星链网络的组成部分,主要承担为全球提供低延迟、高速宽带互联网服务的任务。星链系统依托大量低轨卫星组网,目前该卫星已在既定轨道运行,服务全球互联网覆盖。

基本信息
目录编号:
48437
目录名称:
STARLINK-2642
国际标识:
2021-040K
轨道中心:
EARTH
卫星名称:
星链-2642
卫星全名:
星链-2642 (STARLINK-2642 )
卫星状态:
在轨 (已飞行1866 天)
发射日期:
2021-05-09 UTC
国别 :
美国 (US)
星等 :
--
轨道信息
数据来源 国际轨道数据
星历时间: 2026-06-18T09:44:04+0800
13小时前
查看轨道信息
半长轴: 6848.87km
偏心率: 0.0001211
轨道倾角: 53.160°
近地点辐角 108.265°
升交点赤经 84.055°
平近点角 251.848°
近地点: 469.903km
远地点: 471.563km
周期: 94.013分钟
每日圈数: 15.317025
详细信息
固有亮度:
5
最大亮度:
2.5
卫星平台:
Starlink V1.0
覆盖范围:
全球
运营商:
太空探索技术公司
运营商所在国:
美国
制造商(研发单位):
太空探索技术公司
制造商所在国:
美国
使用方式:
暂无
卫星简介
星链(Starlink)计划是由太空探索技术公司(SpaceX)提出的一个巨型低轨卫星互联网星座项目,计划在2019年至2024年间在太空搭建由约1.2万颗卫星组成的“星链”网络,其中1584颗将部署在地球上空550千米处的近地轨道,并从2020年开始工作。该卫星仍在工作。
2D轨道图
3D轨道图
轨道高度分析图
轨道倾角分析图
轨道综合分析图
查看轨道综合分析图